Location: Bluff Heights
(33.7692°N, 118.1592°W)
Time: 23:31:53
(UTC+00:00)

AO-73 - Pass Details

Date: 30 September 2021
Orbit: 580 x 662 km, 97.6° (Epoch: 20 October)

Event Time Altitude Azimuth Distance (km) Brightness Sun altitude
Rises 11:34:00 0° 31° (NNE) 2,824 ? -28.1°
Reaches altitude 10° 11:36:45 10° 50° (NE) 1,909 ? -27.5°
Maximum altitude 11:39:37 18° 94° (E) 1,444 ? -27.0°
Drops below altitude 10° 11:42:27 10° 139° (SE) 1,888 ? -26.4°
Sets 11:45:09 0° 158° (SSE) 2,781 ? -25.8°
